This is the latest recevied weather packets stored in our database for station/object YO8RIX. If no packets are shown the sender has not sent any weather packets the latest 10 day(s).
| Time | Temp. | Humidity | Pressure | Rain* | Wind** | Luminosity | Snow |
|---|---|---|---|---|---|---|---|
| 1777309521 | 12.78° C | 28% | 1019.6 hPa | 0 mm | - | 8 W/m² | - |
| 1777308938 | 13.33° C | 28% | 1019.5 hPa | 0 mm | - | 13 W/m² | - |
| 1777307127 | 13.89° C | 26% | 1019.6 hPa | 0 mm | - | 33 W/m² | - |
| 1777304130 | 13.89° C | 26% | 1019.7 hPa | 0 mm | - | 45 W/m² | - |
| 1777290321 | 12.22° C | 27% | 1021.7 hPa | 0 mm | - | 591 W/m² | - |
| 1777289735 | 12.22° C | 27% | 1021.8 hPa | 0 mm | - | 608 W/m² | - |
| 1777284925 | 11.67° C | 28% | 1022.9 hPa | 0 mm | - | 656 W/m² | - |
| 1777280136 | 10° C | 32% | 1024.1 hPa | 0 mm | - | 614 W/m² | - |
| 1777279531 | 9.44° C | 32% | 1024.2 hPa | 0 mm | - | 602 W/m² | - |
| 1777269326 | 5.56° C | 49% | 1025.2 hPa | 0 mm | - | 234 W/m² | - |
| 1777268118 | 5° C | 54% | 1025.3 hPa | 0 mm | - | 181 W/m² | - |
| 1777265119 | 2.22° C | 72% | 1025.2 hPa | 0 mm | - | 97 W/m² | - |
| 1777263327 | 1.11° C | 76% | 1025.2 hPa | 0 mm | - | 52 W/m² | - |
| 1777259725 | -0.56° C | 80% | 1024.6 hPa | 0 mm | - | 5 W/m² | - |
| 1777256726 | 0.56° C | 76% | 1024.3 hPa | 0 mm | - | 0 W/m² | - |
| 1777255518 | 0° C | 78% | 1024.4 hPa | 0 mm | - | 0 W/m² | - |
| 1777247124 | 2.22° C | 73% | 1023.8 hPa | 0 mm | - | 0 W/m² | - |
| 1777241730 | 3.33° C | 68% | 1023.3 hPa | 0 mm | - | 0 W/m² | - |
| 1777241126 | 3.33° C | 68% | 1023.4 hPa | 0 mm | - | 0 W/m² | - |
| 1777236340 | 5° C | 60% | 1022.6 hPa | 0 mm | - | 0 W/m² | - |
| 1777234523 | 5.56° C | 58% | 1022.5 hPa | 0 mm | - | 0 W/m² | - |
| 1777220133 | 10° C | 39% | 1016.2 hPa | 0 mm | - | 31 W/m² | - |
| 1777217717 | 10.56° C | 36% | 1015.6 hPa | 0 mm | - | 37 W/m² | - |
| 1777217133 | 11.11° C | 37% | 1015.6 hPa | 0 mm | - | 62 W/m² | - |
| 1777214134 | 11.11° C | 37% | 1015 hPa | 0 mm | - | 73 W/m² | - |
* Rain latest hour (hover to see other rain measurements)
** Current wind speed in m/s (hover to see current wind gust speed)